2015-11-17 00:02:50 r, 14.91m,0000000095Hz,0000004807c,0000000.010s, 025.7C,00002195
2015-11-17 00:12:50 r, 14.87m,0000000097Hz,0000004657c,0000000.010s, 025.7C,00002195
2015-11-17 00:22:50 r, 14.91m,0000000096Hz,0000004808c,0000000.010s, 025.7C,00002195
2015-11-17 00:32:50 r, 14.95m,0000000093Hz,0000005019c,0000000.011s, 026.1C,00002195
2015-11-17 00:42:52 r, 14.91m,0000000096Hz,0000004824c,0000000.010s, 026.1C,00002195
2015-11-17 00:52:50 r, 14.93m,0000000093Hz,0000004881c,0000000.011s, 026.1C,00002195
2015-11-17 01:02:50 r, 14.93m,0000000093Hz,0000004927c,0000000.011s, 026.1C,00002195
2015-11-17 01:12:50 r, 14.93m,0000000094Hz,0000004866c,0000000.011s, 026.1C,00002195
2015-11-17 01:22:50 r, 14.85m,0000000102Hz,0000004573c,0000000.010s, 025.7C,00002195
2015-11-17 01:32:52 r, 14.99m,0000000091Hz,0000005166c,0000000.011s, 025.7C,00002195
2015-11-17 01:42:50 r, 14.95m,0000000090Hz,0000004973c,0000000.011s, 025.7C,00002195
2015-11-17 01:52:50 r, 14.86m,0000000099Hz,0000004581c,0000000.010s, 025.7C,00002195
2015-11-17 02:02:51 r, 14.95m,0000000092Hz,0000004964c,0000000.011s, 025.7C,00002195
2015-11-17 02:12:50 r, 14.87m,0000000100Hz,0000004655c,0000000.010s, 025.7C,00002195
2015-11-17 02:22:50 r, 14.85m,0000000102Hz,0000004522c,0000000.010s, 025.7C,00002195
2015-11-17 02:32:50 r, 14.99m,0000000091Hz,0000005157c,0000000.011s, 025.4C,00002195
2015-11-17 02:42:52 r, 14.94m,0000000094Hz,0000004928c,0000000.011s, 025.7C,00002195
2015-11-17 02:52:50 r, 14.82m,0000000103Hz,0000004434c,0000000.010s, 025.7C,00002195
2015-11-17 03:02:50 r, 14.88m,0000000098Hz,0000004689c,0000000.010s, 025.7C,00002195
2015-11-17 03:12:50 r, 14.90m,0000000095Hz,0000004781c,0000000.010s, 025.7C,00002195
2015-11-17 03:22:50 r, 15.00m,0000000088Hz,0000005205c,0000000.011s, 025.7C,00002195
2015-11-17 03:32:50 r, 14.95m,0000000092Hz,0000004977c,0000000.011s, 025.4C,00002195
2015-11-17 03:42:50 r, 14.88m,0000000097Hz,0000004679c,0000000.010s, 025.7C,00002195
2015-11-17 03:52:52 r, 14.87m,0000000097Hz,0000004658c,0000000.010s, 025.7C,00002195
2015-11-17 04:02:50 r, 14.76m,0000000110Hz,0000004161c,0000000.009s, 025.7C,00002195
2015-11-17 04:12:50 r, 14.97m,0000000091Hz,0000005066c,0000000.011s, 025.7C,00002195
2015-11-17 04:22:50 r, 15.63m,0000000050Hz,0000009320c,0000000.020s, 025.7C,00002195
2015-11-17 04:32:50 r, 15.28m,0000000066Hz,0000006748c,0000000.015s, 025.7C,00002195
2015-11-17 04:42:52 r, 15.04m,0000000085Hz,0000005411c,0000000.012s, 026.1C,00002195
2015-11-17 04:52:50 r, 15.30m,0000000066Hz,0000006885c,0000000.015s, 026.1C,00002195
2015-11-17 05:02:50 r, 15.63m,0000000051Hz,0000009286c,0000000.020s, 025.7C,00002195
2015-11-17 05:12:50 r, 15.55m,0000000053Hz,0000008671c,0000000.019s, 025.7C,00002195
2015-11-17 05:22:50 r, 15.67m,0000000048Hz,0000009609c,0000000.021s, 025.7C,00002195
2015-11-17 05:32:52 r, 15.47m,0000000056Hz,0000008019c,0000000.017s, 025.7C,00002195
2015-11-17 05:42:50 r, 15.27m,0000000068Hz,0000006718c,0000000.015s, 025.7C,00002195
2015-11-17 05:52:50 r, 15.19m,0000000074Hz,0000006216c,0000000.013s, 025.4C,00002195
2015-11-17 06:02:52 r, 15.31m,0000000066Hz,0000006962c,0000000.015s, 025.4C,00002195
2015-11-17 06:12:51 r, 15.56m,0000000053Hz,0000008752c,0000000.019s, 025.4C,00002195
2015-11-17 06:22:50 r, 15.79m,0000000043Hz,0000010796c,0000000.023s, 025.4C,00002195
2015-11-17 06:32:50 r, 15.98m,0000000036Hz,0000012917c,0000000.028s, 025.1C,00002195
2015-11-17 06:42:52 r, 15.95m,0000000036Hz,0000012510c,0000000.027s, 025.1C,00002195
2015-11-17 06:52:50 r, 15.40m,0000000061Hz,0000007510c,0000000.016s, 024.8C,00002195
2015-11-17 07:02:50 r, 14.23m,0000000181Hz,0000000000c,0000000.000s, 024.8C,00002195
2015-11-17 07:12:52 r, 12.85m,0000000644Hz,0000000000c,0000000.000s, 024.8C,00002195
2015-11-17 07:22:50 r, 11.19m,0000002976Hz,0000000000c,0000000.000s, 024.4C,00002195
2015-11-17 07:32:50 r, 09.83m,0000010396Hz,0000000000c,0000000.000s, 024.4C,00002195
2015-11-17 07:42:50 r, 08.96m,0000023275Hz,0000000000c,0000000.000s, 024.1C,00002195
2015-11-17 07:52:50 r, 08.32m,0000041980Hz,0000000000c,0000000.000s, 023.8C,00002195
2015-11-17 08:02:50 r, 07.74m,0000071235Hz,0000000000c,0000000.000s, 023.8C,00002195
2015-11-17 08:12:51 r, 07.14m,0000123780Hz,0000000000c,0000000.000s, 023.5C,00002195
2015-11-17 08:22:50 r, 06.76m,0000176011Hz,0000000000c,0000000.000s, 022.8C,00002195
2015-11-17 08:32:50 r, 06.57m,0000209456Hz,0000000000c,0000000.000s, 022.8C,00002195
2015-11-17 08:42:50 r, 06.13m,0000317422Hz,0000000000c,0000000.000s, 022.8C,00002195
2015-11-17 08:52:50 r, 00.00m,0000402133Hz,0000000000c,0000000.000s, 022.5C,00002195
2015-11-17 09:02:50 r, 00.00m,0000442403Hz,0000000000c,0000000.000s, 022.8C,00002195
2015-11-17 09:12:50 r, 00.00m,0000563720Hz,0000000000c,0000000.000s, 022.8C,00002195
2015-11-17 09:22:50 r, 00.00m,0000563621Hz,0000000000c,0000000.000s, 022.5C,00002195
2015-11-17 09:32:50 r, 00.00m,0000563736Hz,0000000000c,0000000.000s, 022.5C,00002195
2015-11-17 09:42:50 r, 00.00m,0000563646Hz,0000000000c,0000000.000s, 022.5C,00002195
2015-11-17 09:52:50 r, 00.00m,0000563642Hz,0000000000c,0000000.000s, 022.5C,00002195
2015-11-17 10:02:50 r, 00.00m,0000563596Hz,0000000000c,0000000.000s, 022.5C,00002195
2015-11-17 10:12:51 r, 00.00m,0000563634Hz,0000000000c,0000000.000s, 022.5C,00002195
2015-11-17 10:22:50 r, 00.00m,0000563671Hz,0000000000c,0000000.000s, 022.2C,00002195
2015-11-17 10:32:50 r, 00.00m,0000563656Hz,0000000000c,0000000.000s, 022.2C,00002195
2015-11-17 10:42:51 r, 00.00m,0000563524Hz,0000000000c,0000000.000s, 022.2C,00002195
2015-11-17 10:52:50 r, 00.00m,0000563650Hz,0000000000c,0000000.000s, 022.5C,00002195
2015-11-17 11:02:50 r, 00.00m,0000563640Hz,0000000000c,0000000.000s, 022.5C,00002195
2015-11-17 11:12:51 r, 00.00m,0000563689Hz,0000000000c,0000000.000s, 022.5C,00002195
2015-11-17 11:22:50 r, 00.00m,0000563665Hz,0000000000c,0000000.000s, 022.5C,00002195
2015-11-17 11:32:50 r, 00.00m,0000563633Hz,0000000000c,0000000.000s, 022.2C,00002195
2015-11-17 11:42:50 r, 00.00m,0000563613Hz,0000000000c,0000000.000s, 022.5C,00002195
2015-11-17 11:52:51 r, 00.00m,0000563727Hz,0000000000c,0000000.000s, 022.2C,00002195
2015-11-17 12:02:51 r, 00.00m,0000563731Hz,0000000000c,0000000.000s, 022.2C,00002195
2015-11-17 12:12:52 r, 00.00m,0000563546Hz,0000000000c,0000000.000s, 021.9C,00002195
2015-11-17 12:22:51 r, 00.00m,0000563580Hz,0000000000c,0000000.000s, 021.9C,00002195
2015-11-17 12:32:50 r, 00.00m,0000563660Hz,0000000000c,0000000.000s, 021.9C,00002195
2015-11-17 12:42:51 r, 00.00m,0000563550Hz,0000000000c,0000000.000s, 021.5C,00002195
2015-11-17 12:52:51 r, 00.00m,0000563614Hz,0000000000c,0000000.000s, 021.9C,00002195
2015-11-17 13:02:50 r, 00.00m,0000563701Hz,0000000000c,0000000.000s, 021.9C,00002195
2015-11-17 13:12:50 r, 00.00m,0000563574Hz,0000000000c,0000000.000s, 021.9C,00002195
2015-11-17 13:22:52 r, 00.00m,0000563628Hz,0000000000c,0000000.000s, 021.9C,00002195
2015-11-17 13:32:50 r, 00.00m,0000563525Hz,0000000000c,0000000.000s, 021.5C,00002195
2015-11-17 13:42:52 r, 00.00m,0000563569Hz,0000000000c,0000000.000s, 021.5C,00002195
2015-11-17 13:52:50 r, 00.00m,0000563450Hz,0000000000c,0000000.000s, 021.5C,00002195
2015-11-17 14:02:50 r, 00.00m,0000563519Hz,0000000000c,0000000.000s, 021.5C,00002195
2015-11-17 14:12:50 r, 00.00m,0000563533Hz,0000000000c,0000000.000s, 021.5C,00002195
2015-11-17 14:22:50 r, 00.00m,0000563495Hz,0000000000c,0000000.000s, 021.5C,00002195
2015-11-17 14:32:50 r, 00.00m,0000515499Hz,0000000000c,0000000.000s, 021.5C,00002195
2015-11-17 14:42:51 r, 00.00m,0000460927Hz,0000000000c,0000000.000s, 021.5C,00002195
2015-11-17 14:52:51 r, 00.00m,0000470482Hz,0000000000c,0000000.000s, 021.2C,00002195
2015-11-17 15:02:50 r, 00.00m,0000563531Hz,0000000000c,0000000.000s, 021.2C,00002195
2015-11-17 15:12:51 r, 00.00m,0000563487Hz,0000000000c,0000000.000s, 020.9C,00002195
2015-11-17 15:22:51 r, 00.00m,0000515034Hz,0000000000c,0000000.000s, 020.9C,00002195
2015-11-17 15:32:50 r, 00.00m,0000497698Hz,0000000000c,0000000.000s, 020.9C,00002195
2015-11-17 15:42:51 r, 00.00m,0000506324Hz,0000000000c,0000000.000s, 020.9C,00002195
2015-11-17 15:52:50 r, 06.46m,0000233269Hz,0000000000c,0000000.000s, 020.9C,00002195
2015-11-17 16:02:50 r, 07.12m,0000126917Hz,0000000000c,0000000.000s, 020.9C,00002195
2015-11-17 16:12:50 r, 07.19m,0000118500Hz,0000000000c,0000000.000s, 020.9C,00002195
2015-11-17 16:22:51 r, 07.00m,0000142174Hz,0000000000c,0000000.000s, 020.9C,00002195
2015-11-17 16:32:50 r, 07.39m,0000098933Hz,0000000000c,0000000.000s, 020.9C,00002195
2015-11-17 16:42:52 r, 08.05m,0000053833Hz,0000000000c,0000000.000s, 020.6C,00002195
2015-11-17 16:52:50 r, 09.25m,0000017799Hz,0000000000c,0000000.000s, 020.6C,00002195
2015-11-17 17:02:50 r, 10.68m,0000004759Hz,0000000000c,0000000.000s, 020.9C,00002195
2015-11-17 17:12:51 r, 12.12m,0000001267Hz,0000000000c,0000000.000s, 020.9C,00002195
2015-11-17 17:22:51 r, 13.83m,0000000262Hz,0000000000c,0000000.000s, 020.9C,00002195
2015-11-17 17:32:50 r, 15.14m,0000000078Hz,0000005909c,0000000.013s, 020.9C,00002195
2015-11-17 17:42:50 r, 15.82m,0000000042Hz,0000011098c,0000000.024s, 020.9C,00002195
2015-11-17 17:52:50 r, 16.24m,0000000028Hz,0000016295c,0000000.035s, 020.9C,00002195
2015-11-17 18:02:50 r, 16.65m,0000000019Hz,0000023784c,0000000.052s, 020.9C,00002195
2015-11-17 18:12:51 r, 17.11m,0000000012Hz,0000036499c,0000000.079s, 020.9C,00002195
2015-11-17 18:22:50 r, 17.91m,0000000006Hz,0000076693c,0000000.166s, 020.9C,00002195
2015-11-17 18:32:50 r, 18.25m,0000000005Hz,0000103639c,0000000.225s, 020.6C,00002195
2015-11-17 18:42:50 r, 18.25m,0000000004Hz,0000103915c,0000000.226s, 020.3C,00002195
2015-11-17 18:52:51 r, 18.28m,0000000004Hz,0000107469c,0000000.233s, 019.9C,00002195
2015-11-17 19:02:50 r, 17.37m,0000000010Hz,0000046205c,0000000.100s, 019.9C,00002195
2015-11-17 19:12:51 r, 16.77m,0000000017Hz,0000026745c,0000000.058s, 019.6C,00002195
2015-11-17 19:22:51 r, 17.69m,0000000008Hz,0000062450c,0000000.136s, 019.9C,00002195
2015-11-17 19:32:50 r, 18.42m,0000000004Hz,0000120851c,0000000.262s, 019.9C,00002195
2015-11-17 19:42:51 r, 18.41m,0000000004Hz,0000120630c,0000000.262s, 019.6C,00002195
2015-11-17 19:52:50 r, 18.43m,0000000004Hz,0000121931c,0000000.265s, 019.6C,00002195
2015-11-17 20:02:50 r, 18.44m,0000000004Hz,0000124012c,0000000.269s, 019.3C,00002195
2015-11-17 20:12:53 r, 18.44m,0000000003Hz,0000123534c,0000000.268s, 019.3C,00002195
2015-11-17 20:22:51 r, 18.53m,0000000003Hz,0000134319c,0000000.291s, 019.3C,00002195
2015-11-17 20:32:50 r, 18.52m,0000000004Hz,0000133622c,0000000.290s, 019.0C,00002195
2015-11-17 20:42:53 r, 18.48m,0000000003Hz,0000128602c,0000000.279s, 019.0C,00002195
2015-11-17 20:52:51 r, 17.91m,0000000006Hz,0000076087c,0000000.165s, 018.6C,00002195
2015-11-17 21:02:50 r, 18.29m,0000000004Hz,0000108485c,0000000.235s, 018.6C,00002195
2015-11-17 21:12:50 r, 16.82m,0000000016Hz,0000027929c,0000000.061s, 018.6C,00002195
2015-11-17 21:22:52 r, 16.20m,0000000030Hz,0000015769c,0000000.034s, 018.6C,00002195
2015-11-17 21:32:50 r, 15.88m,0000000039Hz,0000011690c,0000000.025s, 019.0C,00002195
2015-11-17 21:42:50 r, 15.94m,0000000037Hz,0000012370c,0000000.027s, 019.3C,00002195
2015-11-17 21:52:53 r, 16.21m,0000000029Hz,0000015837c,0000000.034s, 019.6C,00002195
2015-11-17 22:02:50 r, 17.30m,0000000010Hz,0000043272c,0000000.094s, 019.6C,00002195
2015-11-17 22:12:50 r, 17.22m,0000000011Hz,0000040352c,0000000.088s, 019.6C,00002195
2015-11-17 22:22:50 r, 18.13m,0000000005Hz,0000093160c,0000000.202s, 019.6C,00002195
2015-11-17 22:32:50 r, 18.55m,0000000003Hz,0000137233c,0000000.298s, 019.3C,00002195
2015-11-17 22:42:51 r, 18.54m,0000000003Hz,0000135273c,0000000.294s, 019.0C,00002195
2015-11-17 22:52:52 r, 18.56m,0000000003Hz,0000138913c,0000000.301s, 018.6C,00002195
2015-11-17 23:02:50 r, 18.58m,0000000003Hz,0000140141c,0000000.304s, 018.3C,00002195
2015-11-17 23:12:50 r, 18.55m,0000000004Hz,0000138226c,0000000.300s, 018.3C,00002195
2015-11-17 23:22:52 r, 18.56m,0000000003Hz,0000138237c,0000000.300s, 018.0C,00002195
2015-11-17 23:32:50 r, 18.56m,0000000003Hz,0000137988c,0000000.299s, 018.0C,00002195
2015-11-17 23:42:50 r, 18.56m,0000000004Hz,0000138115c,0000000.300s, 017.7C,00002195
2015-11-17 23:52:51 r, 18.57m,0000000003Hz,0000139203c,0000000.302s, 017.7C,00002195
